Location: Bad Salzschlirf
(50.3750°N, 9.3000°E)
Time: 04:01:12
(UTC+02:00)

ISS - Pass Details

Date: 10 July 2025
Orbit: 413 x 417 km, 51.6° (Epoch: 12 July)

Event Time Altitude Azimuth Distance (km) Brightness Sun altitude
Rises 01:11:23 0° 275° (W) 2,354 0.2 -17.3°
Reaches altitude 10° 01:13:29 10° 278° (W) 1,492 -0.8 -17.3°
Maximum altitude 01:16:49 69° 2° (N) 450 -3.5 -17.4°
Drops below altitude 10° 01:20:09 10° 86° (E) 1,493 -0.9 -17.4°
Sets 01:22:16 0° 89° (E) 2,357 0.1 -17.4°
